• In Belgien
  • Länderverzeichnis
  • Für 7 Tage
  • Wassertemperatur
  • Satellitenkarten
  • Wetterkarte
  • Widgets
  • user-avatar
    Anmelden

    Stündliche Wetter Canberra

    Heute, 24 August, Donnerstag

    Zeit Temperatur Niederschläge Wind Luftdruck Luftfeuchtigkeit
    00:00 +4°C° 0 mm 2 m/S 709 mmHg 89%
    01:00 +4°C° 0 mm 2 m/S 709 mmHg 89%
    02:00 +4°C° 0 mm 2 m/S 709 mmHg 90%
    03:00 +4°C° 0 mm 2 m/S 709 mmHg 91%
    04:00 +4°C° 0 mm 1 m/S 709 mmHg 93%
    05:00 +4°C° 0 mm 1 m/S 709 mmHg 93%
    06:00 +4°C° 0 mm 1 m/S 709 mmHg 93%
    07:00 +4°C° 0 mm 1 m/S 709 mmHg 92%
    08:00 +6°C° 0 mm 1 m/S 710 mmHg 82%
    09:00 +9°C° 0 mm 1 m/S 710 mmHg 71%
    10:00 +11°C° 0 mm 1 m/S 711 mmHg 64%
    11:00 +11°C° 0,1 mm 1 m/S 711 mmHg 62%
    12:00 +12°C° 0,1 mm 1 m/S 710 mmHg 60%
    13:00 +12°C° 0,1 mm 1 m/S 710 mmHg 58%
    14:00 +12°C° 0,4 mm 1 m/S 710 mmHg 58%
    15:00 +12°C° 0,4 mm 2 m/S 710 mmHg 59%
    16:00 +12°C° 0,4 mm 2 m/S 710 mmHg 59%
    17:00 +9°C° 0,3 mm 2 m/S 711 mmHg 65%
    18:00 +8°C° 0,3 mm 1 m/S 711 mmHg 71%
    19:00 +6°C° 0,3 mm 1 m/S 711 mmHg 77%
    20:00 +5°C° 0 mm 1 m/S 712 mmHg 79%
    21:00 +4°C° 0 mm 1 m/S 712 mmHg 81%
    22:00 +3°C° 0 mm 2 m/S 712 mmHg 84%
    23:00 +2°C° 0 mm 2 m/S 712 mmHg 85%

    Morgen, 25 August, Freitag

    Zeit Temperatur Niederschläge Wind Luftdruck Luftfeuchtigkeit
    00:00 +2°C° 0 mm 2 m/S 713 mmHg 85%
    01:00 +1°C° 0 mm 2 m/S 713 mmHg 86%
    02:00 +1°C° 0 mm 2 m/S 713 mmHg 87%
    03:00 +2°C° 0 mm 1 m/S 713 mmHg 88%
    04:00 +2°C° 0 mm 1 m/S 713 mmHg 89%
    05:00 +2°C° 0 mm 1 m/S 713 mmHg 89%
    06:00 +2°C° 0 mm 1 m/S 713 mmHg 89%
    07:00 +2°C° 0 mm 1 m/S 714 mmHg 89%
    08:00 +5°C° 0 mm 1 m/S 714 mmHg 76%
    09:00 +8°C° 0 mm 1 m/S 715 mmHg 63%
    10:00 +11°C° 0 mm 1 m/S 715 mmHg 50%
    11:00 +13°C° 0 mm 1 m/S 715 mmHg 45%
    12:00 +14°C° 0 mm 1 m/S 715 mmHg 41%
    13:00 +16°C° 0 mm 1 m/S 714 mmHg 36%
    14:00 +15°C° 0 mm 1 m/S 714 mmHg 38%
    15:00 +14°C° 0 mm 1 m/S 714 mmHg 41%
    16:00 +14°C° 0 mm 2 m/S 713 mmHg 44%
    17:00 +10°C° 0 mm 2 m/S 714 mmHg 57%
    18:00 +9°C° 0 mm 1 m/S 714 mmHg 70%
    19:00 +6°C° 0 mm 1 m/S 714 mmHg 83%
    20:00 +5°C° 0 mm 1 m/S 714 mmHg 86%
    21:00 +5°C° 0 mm 1 m/S 714 mmHg 88%
    22:00 +4°C° 0 mm 1 m/S 715 mmHg 91%
    23:00 +3°C° 0 mm 0 m/S 714 mmHg 91%

    übermorgen, 26 August, Samstag

    Zeit Temperatur Niederschläge Wind Luftdruck Luftfeuchtigkeit
    00:00 +2°C° 0 mm 0 m/S 714 mmHg 91%
    01:00 +2°C° 0 mm 0 m/S 714 mmHg 92%
    02:00 +2°C° 0 mm 0 m/S 714 mmHg 92%
    03:00 +2°C° 0 mm 0 m/S 714 mmHg 92%
    04:00 +1°C° 0 mm 0 m/S 714 mmHg 92%
    05:00 +2°C° 0 mm 1 m/S 714 mmHg 92%
    06:00 +2°C° 0 mm 1 m/S 714 mmHg 92%
    07:00 +2°C° 0 mm 1 m/S 714 mmHg 92%
    08:00 +5°C° 0 mm 1 m/S 714 mmHg 79%
    09:00 +7°C° 0 mm 2 m/S 715 mmHg 66%
    10:00 +12°C° 0 mm 2 m/S 715 mmHg 53%
    11:00 +13°C° 0 mm 2 m/S 714 mmHg 49%
    12:00 +13°C° 0 mm 3 m/S 714 mmHg 46%
    13:00 +14°C° 0 mm 3 m/S 713 mmHg 42%
    14:00 +14°C° 0 mm 4 m/S 713 mmHg 45%
    15:00 +13°C° 0 mm 4 m/S 712 mmHg 48%
    16:00 +13°C° 0 mm 4 m/S 712 mmHg 51%
    17:00 +11°C° 0 mm 3 m/S 712 mmHg 62%
    18:00 +8°C° 0 mm 3 m/S 712 mmHg 73%
    19:00 +5°C° 0 mm 3 m/S 713 mmHg 83%
    20:00 +4°C° 0 mm 3 m/S 713 mmHg 87%
    21:00 +4°C° 0 mm 2 m/S 713 mmHg 90%
    22:00 +4°C° 0 mm 2 m/S 713 mmHg 93%
    23:00 +3°C° 0 mm 2 m/S 713 mmHg 93%

    27 August, Sonntag

    Zeit Temperatur Niederschläge Wind Luftdruck Luftfeuchtigkeit
    00:00 +3°C° 0 mm 2 m/S 713 mmHg 92%
    01:00 +2°C° 0 mm 2 m/S 712 mmHg 92%
    02:00 +3°C° 0 mm 1 m/S 712 mmHg 92%
    03:00 +3°C° 0 mm 1 m/S 712 mmHg 92%
    04:00 +2°C° 0 mm 1 m/S 712 mmHg 92%
    05:00 +2°C° 0 mm 1 m/S 712 mmHg 92%
    06:00 +2°C° 0 mm 1 m/S 712 mmHg 91%
    07:00 +2°C° 0 mm 1 m/S 713 mmHg 91%
    08:00 +6°C° 0 mm 1 m/S 713 mmHg 79%
    09:00 +9°C° 0 mm 1 m/S 714 mmHg 68%
    10:00 +12°C° 0 mm 2 m/S 714 mmHg 57%
    11:00 +12°C° 0 mm 1 m/S 714 mmHg 55%
    12:00 +12°C° 0 mm 1 m/S 713 mmHg 54%
    13:00 +13°C° 0 mm 1 m/S 713 mmHg 53%
    14:00 +12°C° 0,1 mm 1 m/S 713 mmHg 56%
    15:00 +12°C° 0,1 mm 1 m/S 713 mmHg 60%
    16:00 +11°C° 0,1 mm 1 m/S 713 mmHg 64%
    17:00 +10°C° 0,1 mm 1 m/S 713 mmHg 69%
    18:00 +8°C° 0,1 mm 2 m/S 714 mmHg 74%
    19:00 +6°C° 0,1 mm 2 m/S 714 mmHg 79%
    20:00 +6°C° 0,1 mm 2 m/S 715 mmHg 79%
    21:00 +5°C° 0,1 mm 2 m/S 715 mmHg 79%
    22:00 +4°C° 0,1 mm 2 m/S 715 mmHg 78%
    23:00 +3°C° 0 mm 2 m/S 715 mmHg 79%

    28 August, Montag

    Zeit Temperatur Niederschläge Wind Luftdruck Luftfeuchtigkeit
    00:00 +3°C° 0 mm 2 m/S 715 mmHg 80%
    01:00 +3°C° 0 mm 1 m/S 715 mmHg 80%
    02:00 +3°C° 0 mm 1 m/S 714 mmHg 80%
    03:00 +2°C° 0 mm 1 m/S 714 mmHg 80%
    04:00 +2°C° 0 mm 1 m/S 714 mmHg 80%
    05:00 +2°C° 0 mm 1 m/S 714 mmHg 80%
    06:00 +2°C° 0 mm 1 m/S 715 mmHg 79%
    07:00 +2°C° 0 mm 1 m/S 715 mmHg 79%
    08:00 +5°C° 0 mm 1 m/S 715 mmHg 69%
    09:00 +8°C° 0 mm 1 m/S 716 mmHg 59%
    10:00 +11°C° 0 mm 1 m/S 716 mmHg 49%
    11:00 +11°C° 0 mm 1 m/S 715 mmHg 47%
    12:00 +12°C° 0 mm 1 m/S 715 mmHg 46%
    13:00 +13°C° 0 mm 1 m/S 714 mmHg 44%
    14:00 +12°C° 0 mm 1 m/S 714 mmHg 48%
    15:00 +12°C° 0 mm 1 m/S 714 mmHg 51%
    16:00 +10°C° 0 mm 2 m/S 713 mmHg 54%
    17:00 +9°C° 0 mm 1 m/S 714 mmHg 62%
    18:00 +7°C° 0 mm 1 m/S 714 mmHg 71%
    19:00 +6°C° 0 mm 1 m/S 714 mmHg 80%
    20:00 +5°C° 0 mm 1 m/S 714 mmHg 83%
    21:00 +5°C° 0 mm 1 m/S 714 mmHg 85%
    22:00 +4°C° 0 mm 1 m/S 715 mmHg 88%
    23:00 +4°C° 0 mm 1 m/S 714 mmHg 90%

    29 August, Dienstag

    Zeit Temperatur Niederschläge Wind Luftdruck Luftfeuchtigkeit
    00:00 +3°C° 0 mm 1 m/S 714 mmHg 91%
    01:00 +3°C° 0 mm 1 m/S 714 mmHg 93%
    02:00 +3°C° 0 mm 1 m/S 714 mmHg 94%
    03:00 +2°C° 0 mm 0 m/S 714 mmHg 94%
    04:00 +2°C° 0 mm 0 m/S 714 mmHg 95%
    05:00 +2°C° 0 mm 0 m/S 714 mmHg 95%
    06:00 +2°C° 0 mm 0 m/S 714 mmHg 95%
    07:00 +2°C° 0 mm 0 m/S 714 mmHg 94%
    08:00 +6°C° 0 mm 1 m/S 714 mmHg 85%
    09:00 +8°C° 0 mm 1 m/S 715 mmHg 76%
    10:00 +10°C° 0 mm 2 m/S 715 mmHg 67%
    11:00 +10°C° 0,1 mm 2 m/S 714 mmHg 63%
    12:00 +11°C° 0,1 mm 3 m/S 714 mmHg 58%
    13:00 +12°C° 0,1 mm 3 m/S 713 mmHg 54%
    14:00 +12°C° 0 mm 3 m/S 713 mmHg 54%
    15:00 +12°C° 0 mm 3 m/S 713 mmHg 55%
    16:00 +12°C° 0 mm 3 m/S 713 mmHg 55%
    17:00 +10°C° 0 mm 2 m/S 713 mmHg 65%
    18:00 +7°C° 0 mm 2 m/S 713 mmHg 75%
    19:00 +5°C° 0 mm 2 m/S 714 mmHg 84%
    20:00 +4°C° 0 mm 2 m/S 714 mmHg 87%
    21:00 +5°C° 0 mm 1 m/S 714 mmHg 89%
    22:00 +4°C° 0 mm 1 m/S 714 mmHg 91%
    23:00 +4°C° 0 mm 1 m/S 714 mmHg 91%
    Mehr zeigen